Back to catalog

STARLINK-4035

AliveCommunicationsVLEO
NORAD 52690·PAYLOAD·🇺🇸 United States

Launched May 18, 2022 from Cape Canaveral Space Force Station

Loading…

Next Passes (next 24 hours)

TLE

FreshSource: CelesTrak SupGP

Epoch: Sep 15, 2026, 01:42 UTC

1 52690C 22053AL  26258.07131944  .00003133  00000+0  11819-3 0  2586
2 52690  53.1608   9.0551 0001261  83.5742  89.9173 15.26504236    18

Track STARLINK-4035 in real time with AllMySat

Download on the App Store